Tracking 18851 objects as of 25-Nov-2017
HD Live streaming from Space Station
objects crossing your sky now

CZ-4C DEB

Track CZ-4C DEB now!
10-day predictions


NORAD ID: 39214
Int'l Code: 2013-037G
Perigee: 664.8 km
Apogee: 682.1 km
Inclination: 98.0 °
Period: 98.1 minutes
Semi major axis: 7044 km
RCS: Unknown
Launch date: July 19, 2013
Source: People's Republic of China (PRC)
Launch site: Taiyaun Space Center, China (TSC)

Note: This is SATELLITE DEBRIS
aabbcc
Your satellite tracking list
Your tracking list is empty




NASA's NSSDC Master Catalog

Two Line Element Set (TLE):
1 39214U 13037G   17328.53593259 +.00000102 +00000-0 +25987-4 0  9993
2 39214 097.9955 332.0884 0012236 301.5714 058.4296 14.68354206232637
Source of the keplerian elements: AFSPC